Ocean City, MD

1:03 AM EDT on March 27, 2017 (GMT -0400)
Ocean City Municipal

Weather History for KOXB - December, 2012

Change the Weather History Date:

Friday, December 14, 2012

  Actual Average (KSBY) Record (KSBY)
Temperature  
Mean Temperature 39 °F -  
Max Temperature 53 °F 48 °F 73 °F (2015)
Min Temperature 25 °F 29 °F 6 °F (1958)
Degree Days  
Heating Degree Days 26    
Moisture  
Dew Point 29 °F    
Average Humidity 75    
Maximum Humidity 96    
Minimum Humidity 41    
Precipitation  
Precipitation 0.00 in - - ()
Sea Level Pressure  
Sea Level Pressure 30.29 in    
Wind  
Wind Speed 3 mph (WNW)    
Max Wind Speed 7 mph    
Max Gust Speed -    
Visibility 10 miles    
Events      
Averages and records for this station are not official NWS values.
T = Trace of Precipitation, MM = Missing Value Source: NWS Daily Summary

Daily Weather History Graph

Daily Weather History Graph

Search for Another Location

Airport or City:

Trip Planner

Search our weather history database for the weather conditions in past years. The results will help you decide how hot, cold, wet, or windy it might be!

Date:

Astronomy

Dec. 14, 2012 Rise Set
Actual Time 7:09 AM EST 4:41 PM EST
Civil Twilight 6:40 AM EST 5:10 PM EST
Nautical Twilight 6:07 AM EST 5:43 PM EST
Astronomical Twilight 5:34 AM EST 6:15 PM EST
Moon 8:13 AM EST (12/14) 6:29 PM EST (12/14)
Length of Visible Light 10h 30m
Length of Day
9h 31m
Waxing Crescent, 3% of the Moon is Illuminated
Dec 14
Waxing Crescent
Dec 20
First Quarter
Dec 28
Full
Jan 4
Last Quarter
Jan 11
New

Hourly Weather History & Observations

Time (EST) Temp. Windchill Dew Point Humidity Pressure Visibility Wind Dir Wind Speed Gust Speed Precip Events Conditions
12:53 AM 28.0 °F 24.2 °F 27.0 °F 96% 30.33 in 10.0 mi NW 3.5 mph - N/A   Clear
1:53 AM 28.0 °F 24.2 °F 27.0 °F 96% 30.33 in 10.0 mi NW 3.5 mph - N/A   Clear
2:53 AM 28.9 °F 23.9 °F 28.0 °F 96% 30.34 in 10.0 mi NW 4.6 mph - N/A   Clear
3:53 AM 28.0 °F 22.8 °F 27.0 °F 96% 30.32 in 10.0 mi NW 4.6 mph - N/A   Clear
4:53 AM 26.1 °F - 25.0 °F 96% 30.32 in 8.0 mi Calm Calm - N/A   Clear
5:53 AM 26.1 °F - 24.1 °F 92% 30.33 in 7.0 mi Calm Calm - N/A   Clear
6:53 AM 25.0 °F - 23.0 °F 92% 30.34 in 8.0 mi Calm Calm - N/A   Clear
7:53 AM 28.0 °F - 27.0 °F 96% 30.34 in 8.0 mi Calm Calm - N/A   Clear
8:53 AM 39.9 °F - 35.1 °F 83% 30.34 in 10.0 mi Calm Calm - N/A   Clear
9:53 AM 44.1 °F 41.5 °F 32.0 °F 63% 30.34 in 10.0 mi WNW 4.6 mph - N/A   Clear
10:53 AM 46.9 °F - 28.0 °F 48% 30.32 in 10.0 mi West 6.9 mph - N/A   Clear
11:53 AM 48.9 °F - 28.9 °F 46% 30.30 in 10.0 mi Variable 4.6 mph - N/A   Clear
12:53 PM 51.1 °F - 28.9 °F 43% 30.27 in 10.0 mi Variable 4.6 mph - N/A   Clear
1:53 PM 52.0 °F - 28.9 °F 41% 30.25 in 10.0 mi WSW 5.8 mph - N/A   Clear
2:53 PM 53.1 °F - 30.9 °F 43% 30.25 in 10.0 mi WSW 5.8 mph - N/A   Clear
3:53 PM 51.1 °F - 30.0 °F 44% 30.23 in 10.0 mi West 4.6 mph - N/A   Clear
4:53 PM 45.0 °F - 30.9 °F 58% 30.23 in 10.0 mi Calm Calm - N/A   Clear
5:53 PM 34.0 °F - 30.0 °F 85% 30.23 in 10.0 mi Calm Calm - N/A   Clear
6:53 PM 39.9 °F 37.8 °F 30.0 °F 68% 30.25 in 10.0 mi WNW 3.5 mph - N/A   Clear
7:53 PM 37.0 °F 34.5 °F 30.0 °F 76% 30.26 in 10.0 mi WNW 3.5 mph - N/A   Clear
8:53 PM 32.0 °F - 28.0 °F 85% 30.25 in 10.0 mi Calm Calm - N/A   Clear
9:53 PM 34.0 °F 29.8 °F 30.0 °F 85% 30.26 in 10.0 mi WNW 4.6 mph - N/A   Clear
10:53 PM 35.1 °F 31.0 °F 30.0 °F 82% 30.27 in 10.0 mi WNW 4.6 mph - N/A   Clear
11:53 PM 36.0 °F 33.3 °F 32.0 °F 86% 30.26 in 10.0 mi WNW 3.5 mph - N/A   Clear